Regional Weather Roundup
Issued by NWS

Home | Current Version | Previous Version | Graphics & Text | Print | Product List | Glossary On
Versions: 1 2 3 4 5 6 7 8 9 10 11 12 13 14 15 16 17 18 19 20 21 22 23 24 25 26 27 28 29 30 31 32 33 34 35 36 37 38 39 40 41 42 43 44 45 46 47 48 49 50
000
ASUS45 KABQ 240801
RWRNM
NEW MEXICO REGIONAL WEATHER ROUNDUP
NATIONAL WEATHER SERVICE ALBUQUERQUE NM
100 AM MST FRI FEB 24 2017

NOTE: "FAIR" MEANS FEW OR NO CLOUDS BELOW 12,000 FEET AGL WITH NO
       SIGNIFICANT WEATHER OR OBSTRUCTIONS TO VISION.

      THIS PRODUCT IS RELEASED AS TWO VERSIONS.  ONE VERSION NEAR
      THE TOP OF THE HOUR CONTAINING PRELIMINARY DATA FROM ALBUQUERQUE
      AND OTHER STATIONS.  A FINAL VERSION WITH ADDITIONAL DATA IS
      ISSUED ABOUT 10 MINUTES AFTER THE HOUR.

NMZ501-503-504-510>518-240900-
NORTHWEST PLATEAU/NORTHCENTRAL MOUNTAINS

CITY           SKY/WX    TMP DP  RH WIND       PRES   REMARKS
FARMINGTON     CLOUDY    29   7  39 W8        29.82R WCI  21
LOS ALAMOS     FAIR      28   4  36 SW3       29.79S
SANTA FE       CLOUDY    30   9  41 W7        29.79R WCI  23
TAOS           FAIR      21   0  39 CALM      29.78R
ANGEL FIRE     CLOUDY    22   4  45 W12G18    29.74S WCI  10

$$
NMZ402-403-502-505>509-240900-
WESTCENTRAL MOUNTAINS/SOUTHWEST MOUNTAINS

CITY           SKY/WX    TMP DP  RH WIND       PRES   REMARKS
GALLUP         CLOUDY    30  11  45 W10       29.86S WCI  21
GRANTS         CLOUDY    31  20  63 NW14G21   29.87R WCI  20
SILVER CITY    FAIR      31  12  44 NW13      29.92R WCI  22

$$
NMZ407-409-411-412-240900-
SOUTHERN DESERTS

CITY           SKY/WX    TMP DP  RH WIND       PRES   REMARKS
DEMING         FAIR      38  13  35 SW8       29.91R WCI  32
LAS CRUCES     FAIR      44   9  24 W24       29.86F
HOLLOMAN AFB   FAIR      48   6  18 W18       29.88R
ALAMOGORDO     FAIR      50   3  14 SW16G24   29.88R
T OR C         FAIR      42   5  21 W9        29.85R

$$
NMZ519>523-240900-
CENTRAL VALLEYS/CENTRAL HIGHLANDS

CITY           SKY/WX    TMP DP  RH WIND       PRES   REMARKS
ALBUQUERQUE    FAIR      36  14  40 W8        29.84R WCI  30
DOUBLE EAGLE   FAIR      29  14  54 W9        29.83S WCI  21
MORIARTY ARPT  FAIR      35  14  42 W12G20    29.82R WCI  26
CLINES CORNERS FAIR      21   8  57 W10       29.79R WCI  10
BELEN          FAIR      32  15  49 W8        29.86R WCI  25
SOCORRO        FAIR      42  -1  16 NW18G25   29.85R

$$
NMZ524>526-539-540-240900-
SOUTHCENTRAL MOUNTAINS

CITY           SKY/WX    TMP DP  RH WIND       PRES   REMARKS
RUIDOSO        NOT AVBL

$$
NMZ527>531-240900-
NORTHEAST HIGHLANDS/NORTHEAST PLAINS

CITY           SKY/WX    TMP DP  RH WIND       PRES   REMARKS
LAS VEGAS      FAIR      32   6  33 W22G36    29.73R WCI  19
RATON          FAIR      20   2  45 E5        29.72R WCI  13
CLAYTON        FAIR      27  24  89 N14       29.77R WCI  16

$$
NMZ532>537-240900-
EASTCENTRAL PLAINS

CITY           SKY/WX    TMP DP  RH WIND       PRES   REMARKS
TUCUMCARI      FAIR      34  27  75 E9        29.78R WCI  27
CANNON AFB     FAIR      37  11  34 SW10      29.76R WCI  30
CLOVIS AIRPORT FAIR      37  12  35 NW13      29.75R WCI  29

$$
NMZ028-029-538-240900-
SOUTHEAST PLAINS

CITY           SKY/WX    TMP DP  RH WIND       PRES   REMARKS
ROSWELL        FAIR      50   2  14 W8          N/A
ARTESIA        FAIR      39  14  35 W9        29.77S WCI  33
CARLSBAD       FAIR      55   7  14 W13       29.75R
HOBBS          FAIR      45  19  36 W7        29.78R


$$




USA.gov is the U.S. government's official web portal to all federal, state and local government web resources and services.